Surface/Precipitation History
12/07/2016 15:05  to  12/8/2016 15:05
Change End Date:
Date/Time
(MST)
Sf
Temp Chem Water Layer Surface Precipitation
Sfc Pvt Sub Frz Factor Pct Dpth DpthThk IcePct Cond Salin FI Type Intens Accum Rate
12/08/2016 14:50 Ice Warning 16.0F - 24F 32F 5 0% - - 100% 0 mhos 25 - None None - -
12/08/2016 14:44 Ice Warning 16.2F - 24F 32F 5 0% - - 100% 0 mhos 20 - None None - -
12/08/2016 14:35 Ice Warning 17.2F - 24F 32F 5 0% - - 100% 0 mhos 17 - None None - -
12/08/2016 14:34 Ice Warning 17.2F - 24F 32F 5 0% - - 100% 0 mhos 17 - None None - -
12/08/2016 14:23 Ice Warning 18.3F - 24F 32F 5 0% - - 100% 0 mhos 15 - None None - -
12/08/2016 14:20 Ice Warning 19.2F - 24F 32F 5 0% - - 100% 0 mhos 16 - None None - -
12/08/2016 14:13 Ice Warning 19.9F - 24F 32F 5 0% - - 100% 0 mhos 17 - None None - -
12/08/2016 14:06 Ice Warning 21.4F - 24F 32F 5 0% - - 100% 0 mhos 20 - None None - -
12/08/2016 14:03 Ice Warning 21.7F - 24F 32F 5 0% - - 100% 0 mhos 26 - Yes - - -
12/08/2016 13:53 Ice Warning 22.5F - 24F 32F 5 0% - - 100% 0 mhos 26 - None None - -
12/08/2016 13:50 Ice Warning 22.3F - 24F 32F 5 0% - - 100% 0 mhos 25 - Yes - - -
12/08/2016 13:43 Ice Warning 20.8F - 24F 32F 5 0% - - 100% 0 mhos 21 - None None - -
12/08/2016 13:36 Ice Warning 21.4F - 24F 32F 5 0% - - 100% 0 mhos 21 - None None - -
12/08/2016 13:33 Ice Warning 21.7F - 24F 32F 5 0% - - 100% 0 mhos 20 - None None - -
12/08/2016 13:23 Ice Warning 20.3F - 24F 32F 5 0% - - 100% 0 mhos 22 - None None - -
Date/Time
(MST)
Sf
Temp Chem Water Layer Surface Precipitation
Sfc Pvt Sub Frz Factor Pct Dpth DpthThk IcePct Cond Salin FI Type Intens Accum Rate
12/08/2016 13:21 Ice Warning 20.5F - 24F 32F 5 0% - - 100% 0 mhos 22 - Yes - - -
12/08/2016 13:13 Ice Warning 20.7F - 24F 32F 5 0% - - 100% 0 mhos 23 - None None - -
12/08/2016 13:06 Ice Warning 21.0F - 24F 32F 5 0% - - 100% 0 mhos 29 - None None - -
12/08/2016 13:03 Dry 20.8F - 24F - - - - - - 0 mhos 29 - None None - -
12/08/2016 12:53 Ice Warning 19.2F - 24F 32F 5 0% - - 100% 0 mhos 33 - None None - -
12/08/2016 12:51 Ice Warning 18.7F - 24F 32F 5 0% - - 100% 0 mhos 34 - None None - -
12/08/2016 12:43 Ice Warning 18.0F - 24F 32F 5 0% - - 100% 0 mhos 38 - Yes - - -
12/08/2016 12:35 Ice Warning 17.2F - 24F 32F 5 0% - - 100% 0 mhos 41 - None None - -
12/08/2016 12:33 Ice Warning 17.2F - 24F 32F 5 0% - - 100% 0 mhos 41 - None None - -
12/08/2016 12:23 Ice Warning 17.2F - 24F 32F 5 0% - - 100% 0 mhos 29 - None None - -
12/08/2016 12:20 Ice Warning 17.1F - 24F 32F 5 0% - - 100% 0 mhos 27 - None None - -
12/08/2016 12:13 Ice Warning 16.5F - 24F 32F 5 0% - - 100% 0 mhos 27 - None None - -
12/08/2016 12:06 Ice Warning 16.2F - 24F 32F 5 0% - - 100% 0 mhos 28 - None None - -
12/08/2016 12:03 Ice Warning 15.8F - 24F 32F 5 0% - - 100% 0 mhos 29 - None None - -
12/08/2016 11:53 Ice Warning 15.4F - 24F 32F 5 0% - - 100% 0 mhos 30 - None None - -
Date/Time
(MST)
Sf
Temp Chem Water Layer Surface Precipitation
Sfc Pvt Sub Frz Factor Pct Dpth DpthThk IcePct Cond Salin FI Type Intens Accum Rate
12/08/2016 11:51 Ice Warning 15.6F - 24F 32F 5 0% - - 100% 0 mhos 31 - None None - -
12/08/2016 11:43 Ice Warning 15.6F - 24F 32F 5 0% - - 100% 0 mhos 32 - None None - -
12/08/2016 11:36 Ice Warning 15.1F - 24F 32F 5 0% - - 100% 0 mhos 32 - None None - -
12/08/2016 11:33 Ice Warning 14.9F - 24F 32F 5 0% - - 100% 0 mhos 32 - None None - -
12/08/2016 11:23 Ice Warning 14.4F - 24F 32F 5 0% - - 100% 0 mhos 35 - None None - -
12/08/2016 11:20 Ice Warning 14.5F - 24F 32F 5 0% - - 100% 0 mhos 36 - None None - -
12/08/2016 11:13 Ice Warning 14.2F - 24F 32F 5 0% - - 100% 0 mhos 38 - None None - -
12/08/2016 11:05 Ice Warning 13.8F - 24F 32F 5 0% - - 100% 0 mhos 38 - Yes - - -
12/08/2016 11:03 Ice Warning 13.3F - 24F 32F 5 0% - - 100% 0 mhos 38 - None None - -
12/08/2016 10:53 Ice Warning 12.2F - 24F 32F 5 0% - - 100% 0 mhos 38 - None None - -
12/08/2016 10:50 Ice Warning 12.2F - 24F 32F 5 0% - - 100% 0 mhos 39 - None None - -
12/08/2016 10:43 Ice Warning 11.8F - 24F 32F 5 0% - - 100% 0 mhos 37 - None None - -
12/08/2016 10:36 Ice Warning 11.3F - 24F 32F 5 0% - - 100% 0 mhos 36 - None None - -
12/08/2016 10:33 Ice Warning 11.1F - 24F 32F 5 0% - - 100% 0 mhos 35 - None None - -
12/08/2016 10:22 Ice Warning 10.4F - 24F 32F 5 0% - - 100% 0 mhos 38 - None None - -
Date/Time
(MST)
Sf
Temp Chem Water Layer Surface Precipitation
Sfc Pvt Sub Frz Factor Pct Dpth DpthThk IcePct Cond Salin FI Type Intens Accum Rate
12/08/2016 10:20 Ice Warning 10.4F - 24F 32F 5 0% - - 100% 0 mhos 38 - None None - -
12/08/2016 10:12 Ice Warning 9.5F - 24F 32F 5 0% - - 100% 0 mhos 38 - None None - -
12/08/2016 10:06 Ice Warning 9.3F - 24F 32F 5 0% - - 100% 0 mhos 40 - None None - -
12/08/2016 10:02 Ice Warning 9.0F - 24F 32F 5 0% - - 100% 0 mhos 40 - Yes - - -
12/08/2016 09:52 Ice Warning 8.2F - 24F 32F 5 0% - - 100% 0 mhos 42 - None None - -
12/08/2016 09:51 Ice Warning 8.1F - 24F 32F 5 0% - - 100% 0 mhos 41 - None None - -
12/08/2016 09:42 Ice Warning 7.3F - 24F 32F 5 0% - - 100% 0 mhos 41 - None None - -
12/08/2016 09:35 Ice Warning 7.0F - 24F 32F 5 0% - - 100% 0 mhos 40 - None None - -
12/08/2016 09:32 Ice Warning 6.8F - 24F 32F 5 0% - - 100% 0 mhos 39 - None None - -
12/08/2016 09:22 Ice Warning 6.3F - 24F 32F 5 0% - - 100% 0 mhos 37 - None None - -
12/08/2016 09:20 Ice Warning 6.1F - 24F 32F 5 0% - - 100% 0 mhos 42 - None None - -
12/08/2016 09:12 Ice Warning 5.4F - 24F 32F 5 0% - - 100% 0 mhos 39 - None None - -
12/08/2016 09:05 Ice Warning 4.8F - 24F 32F 5 0% - - 100% 0 mhos 38 - None None - -
12/08/2016 09:02 Ice Warning 4.8F - 24F 32F 5 0% - - 100% 0 mhos 38 - None None - -
12/08/2016 08:52 Ice Warning 4.5F - 24F 32F 5 0% - - 100% 0 mhos 35 - None None - -
Date/Time
(MST)
Sf
Temp Chem Water Layer Surface Precipitation
Sfc Pvt Sub Frz Factor Pct Dpth DpthThk IcePct Cond Salin FI Type Intens Accum Rate
12/08/2016 08:50 Ice Warning 4.3F - 24F 32F 5 0% - - 100% 0 mhos 35 - None None - -
12/08/2016 08:42 Ice Warning 4.1F - 24F 32F 5 0% - - 100% 0 mhos 34 - None None - -
12/08/2016 08:35 Ice Warning 3.7F - 24F 32F 5 0% - - 100% 0 mhos 33 - None None - -
12/08/2016 08:32 Ice Warning 3.7F - 24F 32F 5 0% - - 100% 0 mhos 33 - None None - -
12/08/2016 08:22 Ice Warning 3.4F - 24F 32F 5 0% - - 100% 0 mhos 32 - None None - -
12/08/2016 08:21 Ice Warning 3.4F - 24F 32F 5 0% - - 100% 0 mhos 32 - None None - -
12/08/2016 08:12 Ice Warning 3.0F - 24F 32F 5 0% - - 100% 0 mhos 32 - None None - -
12/08/2016 08:06 Ice Warning 2.8F - 24F 32F 5 0% - - 100% 0 mhos 32 - None None - -
12/08/2016 08:02 Ice Warning 2.8F - 24F 32F 5 0% - - 100% 0 mhos 32 - None None - -
12/08/2016 07:52 Ice Warning 2.7F - 24F 32F 5 0% - - 100% 0 mhos 32 - None None - -
12/08/2016 07:50 Ice Warning 2.7F - 24F 32F 5 0% - - 100% 0 mhos 32 - None None - -
12/08/2016 07:42 Ice Warning 2.7F - 24F 32F 5 0% - - 100% 0 mhos 32 - None None - -
12/08/2016 07:35 Ice Warning 2.7F - 24F 32F 5 0% - - 100% 0 mhos 32 - None None - -
12/08/2016 07:32 Ice Warning 2.5F - 24F 32F 5 0% - - 100% 0 mhos 31 - None None - -
12/08/2016 07:22 Ice Warning 2.5F - 24F 32F 5 0% - - 100% 0 mhos 32 - None None - -
Date/Time
(MST)
Sf
Temp Chem Water Layer Surface Precipitation
Sfc Pvt Sub Frz Factor Pct Dpth DpthThk IcePct Cond Salin FI Type Intens Accum Rate
12/08/2016 07:20 Ice Warning 2.5F - 24F 32F 5 0% - - 100% 0 mhos 32 - None None - -
12/08/2016 07:12 Ice Warning 2.5F - 24F 32F 5 0% - - 100% 0 mhos 33 - None None - -
12/08/2016 07:05 Ice Warning 2.5F - 24F 32F 5 0% - - 100% 0 mhos 33 - None None - -
12/08/2016 07:02 Ice Warning 2.5F - 24F 32F 5 0% - - 100% 0 mhos 33 - None None - -
12/08/2016 06:52 Ice Warning 2.3F - 24F 32F 5 0% - - 100% 0 mhos 32 - None None - -
12/08/2016 06:50 Ice Warning 2.3F - 24F 32F 5 0% - - 100% 0 mhos 32 - None None - -
12/08/2016 06:41 Ice Warning 1.9F - 24F 32F 5 0% - - 100% 0 mhos 31 - None None - -
12/08/2016 06:36 Ice Warning 2.1F - 24F 32F 5 0% - - 100% 0 mhos 31 - None None - -
12/08/2016 06:31 Ice Warning 2.1F - 24F 32F 5 0% - - 100% 0 mhos 31 - None None - -
12/08/2016 06:21 Ice Warning 2.3F - 24F 32F 5 0% - - 100% 0 mhos 31 - None None - -
12/08/2016 06:20 Ice Warning 2.3F - 24F 32F 5 0% - - 100% 0 mhos 31 - None None - -
12/08/2016 06:11 Ice Warning 2.5F - 24F 32F 5 0% - - 100% 0 mhos 30 - None None - -
12/08/2016 06:05 Ice Warning 2.5F - 24F 32F 5 0% - - 100% 0 mhos 31 - Yes - - -
12/08/2016 06:01 Ice Warning 2.7F - 24F 32F 5 0% - - 100% 0 mhos 30 - None None - -
12/08/2016 05:51 Ice Warning 2.7F - 24F 32F 5 0% - - 100% 0 mhos 31 - None None - -
Date/Time
(MST)
Sf
Temp Chem Water Layer Surface Precipitation
Sfc Pvt Sub Frz Factor Pct Dpth DpthThk IcePct Cond Salin FI Type Intens Accum Rate
12/08/2016 05:50 Ice Warning 2.7F - 24F 32F 5 0% - - 100% 0 mhos 31 - None None - -
12/08/2016 05:41 Ice Warning 2.8F - 24F 32F 5 0% - - 100% 0 mhos 30 - None None - -
12/08/2016 05:36 Ice Warning 2.7F - 24F 32F 5 0% - - 100% 0 mhos 30 - None None - -
12/08/2016 05:31 Ice Warning 2.8F - 24F 32F 5 0% - - 100% 0 mhos 30 - None None - -
12/08/2016 05:21 Ice Warning 2.8F - 24F 32F 5 0% - - 100% 0 mhos 30 - None None - -
12/08/2016 05:20 Ice Warning 2.8F - 24F 32F 5 0% - - 100% 0 mhos 30 - None None - -
12/08/2016 05:11 Ice Warning 3.0F - 24F 32F 5 0% - - 100% 0 mhos 30 - Yes - - -
12/08/2016 05:05 Ice Warning 3.0F - 24F 32F 5 0% - - 100% 0 mhos 30 - None None - -
12/08/2016 05:01 Ice Warning 3.0F - 24F 32F 5 0% - - 100% 0 mhos 30 - None None - -
12/08/2016 04:51 Ice Warning 2.8F - 24F 32F 5 0% - - 100% 0 mhos 30 - None None - -
12/08/2016 04:50 Ice Warning 2.8F - 24F 32F 5 0% - - 100% 0 mhos 30 - None None - -
12/08/2016 04:41 Ice Warning 2.7F - 24F 32F 5 0% - - 100% 0 mhos 30 - None None - -
12/08/2016 04:36 Ice Warning 2.5F - 24F 32F 5 0% - - 100% 0 mhos 29 - None None - -
12/08/2016 04:31 Ice Warning 2.5F - 24F 32F 5 0% - - 100% 0 mhos 29 - None None - -
12/08/2016 04:21 Ice Warning 2.5F - 24F 32F 5 0% - - 100% 0 mhos 28 - None None - -
Date/Time
(MST)
Sf
Temp Chem Water Layer Surface Precipitation
Sfc Pvt Sub Frz Factor Pct Dpth DpthThk IcePct Cond Salin FI Type Intens Accum Rate
12/08/2016 04:21 Ice Warning 2.5F - 24F 32F 5 0% - - 100% 0 mhos 28 - None None - -
12/08/2016 04:11 Ice Warning 2.5F - 24F 32F 5 0% - - 100% 0 mhos 29 - None None - -
12/08/2016 04:05 Ice Warning 2.5F - 24F 32F 5 0% - - 100% 0 mhos 29 - None None - -
12/08/2016 04:01 Ice Warning 2.5F - 24F 32F 5 0% - - 100% 0 mhos 29 - None None - -
12/08/2016 03:51 Ice Warning 2.5F - 24F 32F 5 0% - - 100% 0 mhos 29 - None None - -
12/08/2016 03:50 Ice Warning 2.5F - 24F 32F 5 0% - - 100% 0 mhos 29 - None None - -
12/08/2016 03:41 Ice Warning 2.5F - 24F 32F 5 0% - - 100% 0 mhos 29 - None None - -
12/08/2016 03:35 Ice Warning 2.5F - 24F 32F 5 0% - - 100% 0 mhos 29 - None None - -
12/08/2016 03:31 Ice Warning 2.5F - 24F 32F 5 0% - - 100% 0 mhos 29 - None None - -
12/08/2016 03:20 Ice Warning 2.5F - 24F 32F 5 0% - - 100% 0 mhos 28 - None None - -
12/08/2016 03:10 Ice Warning 2.3F - 25F 32F 5 0% - - 100% 0 mhos 28 - None None - -
12/08/2016 03:05 Ice Watch 2.3F - 25F - 5 - - - - 0 mhos 28 - Yes - - -
12/08/2016 03:00 Ice Watch 2.3F - 25F - 5 - - - - 0 mhos 28 - None None - -
12/08/2016 02:50 Ice Watch 2.1F - 25F - 5 - - - - 0 mhos 27 - None None - -
12/08/2016 02:50 Ice Watch 2.1F - 25F - 5 - - - - 0 mhos 27 - None None - -
Date/Time
(MST)
Sf
Temp Chem Water Layer Surface Precipitation
Sfc Pvt Sub Frz Factor Pct Dpth DpthThk IcePct Cond Salin FI Type Intens Accum Rate
12/08/2016 02:40 Ice Watch 1.8F - 25F - 5 - - - - 0 mhos 25 - None None - -
12/08/2016 02:35 Ice Watch 1.8F - 25F - 5 - - - - 0 mhos 25 - None None - -
12/08/2016 02:30 Ice Watch 1.6F - 25F - 5 - - - - 0 mhos 24 - None None - -
12/08/2016 02:20 Ice Watch 1.4F - 25F - 5 - - - - 0 mhos 23 - None None - -
12/08/2016 02:20 Ice Watch 1.4F - 25F - 5 - - - - 0 mhos 23 - None None - -
12/08/2016 02:10 Ice Watch 1.2F - 25F - 5 - - - - 0 mhos 22 - None None - -
12/08/2016 02:05 Ice Watch 1.0F - 25F - 5 - - - - 0 mhos 22 - None None - -
12/08/2016 02:00 Ice Watch 1.0F - 25F - 5 - - - - 0 mhos 21 - None None - -
12/08/2016 01:50 Ice Watch 0.7F - 25F - 5 - - - - 0 mhos 21 - None None - -
12/08/2016 01:50 Ice Watch 0.7F - 25F - 5 - - - - 0 mhos 21 - None None - -
12/08/2016 01:40 Ice Watch 0.3F - 25F - 5 - - - - 0 mhos 20 - None None - -
12/08/2016 01:35 Ice Watch 0.1F - 25F - 5 - - - - 0 mhos 19 - None None - -
12/08/2016 01:30 Ice Watch 0.0F - 25F - 5 - - - - 0 mhos 19 - None None - -
12/08/2016 01:20 Ice Watch -0.2F - 25F - 5 - - - - 0 mhos 18 - None None - -
12/08/2016 01:20 Ice Watch -0.2F - 25F - 5 - - - - 0 mhos 18 - None None - -
Date/Time
(MST)
Sf
Temp Chem Water Layer Surface Precipitation
Sfc Pvt Sub Frz Factor Pct Dpth DpthThk IcePct Cond Salin FI Type Intens Accum Rate
12/08/2016 01:10 Ice Watch -0.6F - 25F - 5 - - - - 0 mhos 17 - None None - -
12/08/2016 01:06 Ice Watch -0.8F - 25F - 5 - - - - 0 mhos 17 - None None - -
12/08/2016 01:00 Ice Watch -1.1F - 25F - 5 - - - - 0 mhos 17 - None None - -
12/08/2016 00:50 Ice Watch -1.3F - 25F - 5 - - - - 0 mhos 13 - None None - -
12/08/2016 00:50 Ice Watch -1.3F - 25F - 5 - - - - 0 mhos 13 - None None - -
12/08/2016 00:40 Ice Watch -2.0F - 25F - 5 - - - - 0 mhos 12 - None None - -
12/08/2016 00:36 Ice Watch -2.2F - 25F - 5 - - - - 0 mhos 12 - None None - -
12/08/2016 00:30 Ice Watch -2.4F - 25F - 5 - - - - 0 mhos 10 - None None - -
12/08/2016 00:20 Ice Watch -2.9F - 25F - 5 - - - - 0 mhos 8 - None None - -
12/08/2016 00:20 Ice Watch -2.9F - 25F - 5 - - - - 0 mhos 8 - None None - -
12/08/2016 00:10 Ice Watch -2.9F - 25F - 5 - - - - 0 mhos 8 - None None - -
12/08/2016 00:05 Ice Watch -2.9F - 25F - 5 - - - - 0 mhos 10 - None None - -
12/08/2016 00:00 Ice Watch -2.7F - 25F - 5 - - - - 0 mhos 10 - None None - -
12/07/2016 23:51 Ice Watch -2.4F - 25F - 5 - - - - 0 mhos 10 - None None - -
12/07/2016 23:49 Ice Watch -2.4F - 25F - 5 - - - - 0 mhos 10 - None None - -
Date/Time
(MST)
Sf
Temp Chem Water Layer Surface Precipitation
Sfc Pvt Sub Frz Factor Pct Dpth DpthThk IcePct Cond Salin FI Type Intens Accum Rate
12/07/2016 23:39 Ice Watch -2.2F - 25F - 5 - - - - 0 mhos 10 - None None - -
12/07/2016 23:35 Ice Watch -2.2F - 25F - 5 - - - - 0 mhos 10 - None None - -
12/07/2016 23:29 Ice Watch -2.2F - 25F - 5 - - - - 0 mhos 12 - None None - -
12/07/2016 23:20 Ice Watch -1.8F - 25F - 5 - - - - 0 mhos 13 - None None - -
12/07/2016 23:19 Ice Watch -1.8F - 25F - 5 - - - - 0 mhos 13 - None None - -
12/07/2016 23:09 Ice Watch -1.5F - 25F - 5 - - - - 0 mhos 13 - None None - -
12/07/2016 23:06 Ice Watch -1.3F - 25F - 5 - - - - 0 mhos 13 - None None - -
12/07/2016 22:59 Ice Watch -1.1F - 25F - 5 - - - - 0 mhos 13 - None None - -
12/07/2016 22:50 Ice Watch -1.1F - 25F - 5 - - - - 0 mhos 16 - None None - -
12/07/2016 22:49 Ice Watch -0.9F - 25F - 5 - - - - 0 mhos 16 - None None - -
12/07/2016 22:39 Ice Watch -0.6F - 25F - 5 - - - - 0 mhos 17 - None None - -
12/07/2016 22:35 Ice Watch -0.4F - 25F - 5 - - - - 0 mhos 17 - None None - -
12/07/2016 22:29 Ice Watch -0.4F - 25F - 5 - - - - 0 mhos 17 - None None - -
12/07/2016 22:20 Ice Watch -0.2F - 25F - 5 - - - - 0 mhos 18 - None None - -
12/07/2016 22:19 Ice Watch -0.2F - 25F - 5 - - - - 0 mhos 18 - None None - -
Date/Time
(MST)
Sf
Temp Chem Water Layer Surface Precipitation
Sfc Pvt Sub Frz Factor Pct Dpth DpthThk IcePct Cond Salin FI Type Intens Accum Rate
12/07/2016 22:09 Ice Watch -0.2F - 25F - 5 - - - - 0 mhos 18 - None None - -
12/07/2016 22:05 Ice Watch 0.0F - 25F - 5 - - - - 0 mhos 18 - None None - -
12/07/2016 21:59 Ice Watch 0.0F - 25F - 5 - - - - 0 mhos 19 - None None - -
12/07/2016 21:50 Ice Watch 0.0F - 25F - 5 - - - - 0 mhos 18 - None None - -
12/07/2016 21:49 Ice Watch -0.2F - 25F - 5 - - - - 0 mhos 18 - None None - -
12/07/2016 21:39 Ice Watch -0.2F - 25F - 5 - - - - 0 mhos 18 - None None - -
12/07/2016 21:36 Ice Watch -0.2F - 25F - 5 - - - - 0 mhos 18 - None None - -
12/07/2016 21:29 Ice Watch -0.2F - 25F - 5 - - - - 0 mhos 18 - None None - -
12/07/2016 21:21 Ice Watch 0.0F - 25F - 5 - - - - 0 mhos 18 - None None - -
12/07/2016 21:19 Ice Watch 0.1F - 25F - 5 - - - - 0 mhos 18 - None None - -
12/07/2016 21:09 Ice Watch 0.5F - 25F - 5 - - - - 0 mhos 19 - None None - -
12/07/2016 21:05 Ice Watch 0.7F - 25F - 5 - - - - 0 mhos 19 - None None - -
12/07/2016 20:59 Ice Watch 0.9F - 25F - 5 - - - - 0 mhos 20 - None None - -
12/07/2016 20:50 Ice Watch 1.0F - 25F - 5 - - - - 0 mhos 20 - None None - -
12/07/2016 20:49 Ice Watch 1.0F - 25F - 5 - - - - 0 mhos 20 - None None - -
Date/Time
(MST)
Sf
Temp Chem Water Layer Surface Precipitation
Sfc Pvt Sub Frz Factor Pct Dpth DpthThk IcePct Cond Salin FI Type Intens Accum Rate
12/07/2016 20:39 Ice Watch 1.2F - 25F - 5 - - - - 0 mhos 21 - None None - -
12/07/2016 20:36 Ice Watch 1.4F - 25F - 5 - - - - 0 mhos 21 - None None - -
12/07/2016 20:28 Ice Watch 1.6F - 25F - 5 - - - - 0 mhos 21 - None None - -
12/07/2016 20:21 Ice Watch 1.6F - 26F - 5 - - - - 0 mhos 22 - None None - -
12/07/2016 20:18 Ice Watch 1.6F - 26F - 5 - - - - 0 mhos 21 - None None - -
12/07/2016 20:08 Ice Watch 1.6F - 26F - 5 - - - - 0 mhos 21 - None None - -
12/07/2016 20:06 Ice Watch 1.6F - 26F - 5 - - - - 0 mhos 21 - None None - -
12/07/2016 19:58 Ice Watch 1.6F - 26F - 5 - - - - 0 mhos 21 - None None - -
12/07/2016 19:51 Ice Watch 1.8F - 26F - 5 - - - - 0 mhos 21 - None None - -
12/07/2016 19:48 Ice Watch 1.9F - 26F - 5 - - - - 0 mhos 21 - None None - -
12/07/2016 19:38 Ice Watch 2.1F - 26F - 5 - - - - 0 mhos 21 - None None - -
12/07/2016 19:36 Ice Watch 1.9F - 26F - 5 - - - - 0 mhos 21 - None None - -
12/07/2016 19:28 Ice Watch 1.9F - 26F - 5 - - - - 0 mhos 21 - None None - -
12/07/2016 19:21 Ice Watch 1.9F - 26F - 5 - - - - 0 mhos 21 - None None - -
12/07/2016 19:18 Ice Watch 1.9F - 26F - 5 - - - - 0 mhos 21 - None None - -
Date/Time
(MST)
Sf
Temp Chem Water Layer Surface Precipitation
Sfc Pvt Sub Frz Factor Pct Dpth DpthThk IcePct Cond Salin FI Type Intens Accum Rate
12/07/2016 19:08 Ice Watch 1.6F - 26F - 5 - - - - 0 mhos 21 - None None - -
12/07/2016 19:05 Ice Watch 1.6F - 26F - 5 - - - - 0 mhos 20 - None None - -
12/07/2016 18:58 Ice Watch 1.6F - 26F - 5 - - - - 0 mhos 20 - None None - -
12/07/2016 18:50 Ice Watch 1.6F - 26F - 5 - - - - 0 mhos 20 - None None - -
12/07/2016 18:48 Ice Watch 1.6F - 26F - 5 - - - - 0 mhos 20 - None None - -
12/07/2016 18:38 Ice Watch 1.6F - 26F - 5 - - - - 0 mhos 19 - None None - -
12/07/2016 18:35 Ice Watch 1.4F - 26F - 5 - - - - 0 mhos 19 - None None - -
12/07/2016 18:28 Ice Watch 1.4F - 26F - 5 - - - - 0 mhos 19 - None None - -
12/07/2016 18:21 Ice Watch 1.6F - 26F - 5 - - - - 0 mhos 20 - None None - -
12/07/2016 18:18 Ice Watch 1.8F - 26F - 5 - - - - 0 mhos 20 - None None - -
12/07/2016 18:08 Ice Watch 2.1F - 26F - 5 - - - - 0 mhos 20 - None None - -
12/07/2016 18:05 Ice Watch 2.3F - 26F - 5 - - - - 0 mhos 20 - None None - -
12/07/2016 17:58 Ice Watch 2.3F - 26F - 5 - - - - 0 mhos 21 - None None - -
12/07/2016 17:50 Ice Watch 2.5F - 26F - 5 - - - - 0 mhos 21 - None None - -
12/07/2016 17:48 Ice Watch 2.5F - 26F - 5 - - - - 0 mhos 21 - None None - -
Date/Time
(MST)
Sf
Temp Chem Water Layer Surface Precipitation
Sfc Pvt Sub Frz Factor Pct Dpth DpthThk IcePct Cond Salin FI Type Intens Accum Rate
12/07/2016 17:38 Ice Watch 2.5F - 26F - 5 - - - - 0 mhos 21 - None None - -
12/07/2016 17:35 Ice Watch 2.7F - 26F - 5 - - - - 0 mhos 21 - None None - -
12/07/2016 17:28 Ice Watch 2.7F - 26F - 5 - - - - 0 mhos 21 - None None - -
12/07/2016 17:20 Ice Watch 2.8F - 26F - 5 - - - - 0 mhos 20 - None None - -
12/07/2016 17:18 Ice Watch 2.8F - 26F - 5 - - - - 0 mhos 20 - None None - -
12/07/2016 17:08 Ice Watch 2.8F - 26F - 5 - - - - 0 mhos 19 - None None - -
12/07/2016 17:05 Ice Watch 2.8F - 26F - 5 - - - - 0 mhos 19 - None None - -
12/07/2016 16:57 Ice Watch 2.8F - 26F - 5 - - - - 0 mhos 19 - None None - -
12/07/2016 16:50 Ice Watch 3.0F - 26F - 5 - - - - 0 mhos 18 - None None - -
12/07/2016 16:47 Ice Watch 3.0F - 26F - 5 - - - - 0 mhos 18 - None None - -
12/07/2016 16:37 Ice Watch 3.4F - 26F - 5 - - - - 0 mhos 15 - None None - -
12/07/2016 16:35 Ice Watch 3.4F - 26F - 5 - - - - 0 mhos 18 - None None - -
12/07/2016 16:27 Ice Watch 3.7F - 26F - 5 - - - - 0 mhos 18 - None None - -
12/07/2016 16:20 Ice Watch 3.7F - 26F - 5 - - - - 0 mhos 18 - None None - -
12/07/2016 16:17 Ice Watch 3.7F - 26F - 5 - - - - 0 mhos 15 - None None - -
Date/Time
(MST)
Sf
Temp Chem Water Layer Surface Precipitation
Sfc Pvt Sub Frz Factor Pct Dpth DpthThk IcePct Cond Salin FI Type Intens Accum Rate
12/07/2016 16:07 Ice Watch 3.9F - 26F - 5 - - - - 0 mhos 15 - None None - -
12/07/2016 16:06 Ice Watch 3.9F - 26F - 5 - - - - 0 mhos 15 - None None - -
12/07/2016 15:57 Ice Watch 4.3F - 26F - 5 - - - - 0 mhos 15 - None None - -
12/07/2016 15:50 Ice Watch 4.6F - 26F - 5 - - - - 0 mhos 16 - None None - -
12/07/2016 15:47 Ice Watch 4.8F - 26F - 5 - - - - 0 mhos 16 - None None - -
12/07/2016 15:37 Ice Watch 5.5F - 26F - 5 - - - - 0 mhos 16 - None None - -
12/07/2016 15:35 Ice Watch 5.7F - 26F - 5 - - - - 0 mhos 16 - None None - -
12/07/2016 15:27 Ice Watch 6.6F - 26F - 5 - - - - 0 mhos 17 - None None - -
12/07/2016 15:21 Ice Watch 7.5F - 26F - 5 - - - - 0 mhos 18 - None None - -
12/07/2016 15:17 Dry 8.4F - 26F - - - - - - 0 mhos 19 - None None - -
12/07/2016 15:07 Dry 9.3F - 26F - - - - - - 0 mhos 20 - None None - -
12/07/2016 15:05 Dry 9.3F - 26F - - - - - - 0 mhos 20 - None None - -
Change End Date:

Copyright © 1998-2015 Vaisala, Inc.
All Rights Reserved
Send comments about the data to:
SCAN Web ® is a registered trademark of Vaisala, Inc.
SCAN Web Version 6.0